Weather in Jordanow

Poland     49°39′03″N   19°49′46″E
temp.,
°C
wind,
m/s
gust,
m/s
humid.,
%
clouds,
%
prec.,
mm/h
press.,
hPa
HPBL,
m
27 june, mon
mon2723:00+18s22760 0.0 101727
02:00+16sse22790 0.0 101825
05:00+15sse22800 0.0 101827
08:00+22se12600 0.0 1018269
11:00+28ne01420 0.0 10171645
14:00+28n324174 0.0 10161943
17:00+24sw1161100 0.0 101734
20:00+20s338049 0.3 101762
28 june, tue
tue2823:00+20s226959 0.0 101840
02:00+19s22705 0.0 101819
05:00+18s227523 0.0 101921
08:00+23ese016099 0.1 1018193
11:00+25nnw3255100 0.0 1019773
14:00+27n335088 0.0 10191019
17:00+28n224716 0.0 10181603
20:00+22nnw228499 1.2 101830
29 june, wed
wed2923:00+19sse119112 0.6 101911
02:00+17s21935 0.6 101813
05:00+16sse22925 0.0 101722
08:00+22sse12715 0.0 1016180
11:00+30ene01395 0.0 10151337
14:00+32nne333332 0.0 10142458
17:00+30e343930 0.0 10131585
20:00+24sse22640 0.0 101212
30 june, thu
thu3023:00+21s22670 0.0 101324
02:00+20s22670 0.0 101327
05:00+18ssw22641 0.0 101317
08:00+25sse11490 0.0 1013176
11:00+31ene113194 0.0 10131081
14:00+33nne432710 0.0 10112721
17:00+20sw51176100 0.6 1014337
20:00+21n117442 0.6 101421
1 july, fri
fri123:00+19s22775 0.0 101422
02:00+18sse227616 0.0 101330
05:00+19s33666 0.0 101344
08:00+25s24525 0.0 1013194
11:00+32ssw24335 0.0 10131560
14:00+32ssw132980 0.0 10112286
17:00+24nne2366100 0.1 1014110
20:00+22se227113 0.2 101328